Regional Weather Roundup
Issued by NWS

Home | Current Version | Previous Version | Text Only | Print | Product List | Glossary Off
Versions: 1 2 3 4 5 6 7 8 9 10 11 12 13 14 15 16 17 18 19 20 21 22 23 24 25 26 27

000
ASUS45 KBOU 270507
RWRCO

WEATHER ROUNDUP FOR COLORADO
NATIONAL WEATHER SERVICE DENVER/BOULDER CO
1100 PM MDT WED JUL 26 2017

NOTE: "FAIR" INDICATES FEW OR NO CLOUDS BELOW 12000 FEET WITH NO
SIGNIFICANT WEATHER AND/OR OBSTRUCTIONS TO VISIBILITY.

COZ001>005-013-030-031-270600-
...NORTHWEST COLORADO...

CITY           SKY/WX    TMP DP  RH WIND       PRES   REMARKS
CRAIG          FAIR      63  58  83 E3        30.29R
HAYDEN         FAIR      63  54  72 NE3       30.32S
MEEKER         FAIR      63  58  83 E3        30.30R
RABBIT EARS PA FAIR      52  50  93 CALM      30.62R
STEAMBOAT SPGS FAIR      60  58  90 NW3       30.34S
WALDEN           N/A     54  52  94 CALM      30.44S VSB 1
$$

COZ006>008-011-270600-
...WEST CENTRAL VALLEYS...

CITY           SKY/WX    TMP DP  RH WIND       PRES   REMARKS
GRAND JUNCTION FAIR      78  56  46 N6        30.14R
MONTROSE       FAIR      72  59  63 SE14      30.25R
EAGLE          FAIR      67  55  65 VRB3      30.32R
RIFLE          MOCLDY    74  60  61 CALM      30.21R
DELTA          FAIR      75  57  53 NE3       30.18S
NUCLA          FAIR      72  54  53 E8        30.28R
$$

COZ017>023-064>068-270600-
...SOUTHWEST COLORADO...

CITY           SKY/WX    TMP DP  RH WIND       PRES   REMARKS
DURANGO        FAIR      68  53  58 NW3       30.28R
CORTEZ         FAIR      68  57  68 NE3       30.23R
PAGOSA SPRINGS FAIR      69  47  45 CALM      30.38S
TELLURIDE      FAIR      57  54  87 E5        30.53S
WOLF CREEK PAS FAIR      50  41  71 CALM      30.76S
$$

COZ009-010-012-014-032>034-037-058>063-270600-
...CENTRAL COLORADO...

CITY           SKY/WX    TMP DP  RH WIND       PRES   REMARKS
ASPEN          FAIR      60  55  83 S6        30.39R
BUENA VISTA    CLOUDY    60  53  78 SE6       30.47R
COPPER MTN     CLOUDY    54  46  76 CALM      30.74R
BERTHOUD PASS  MOCLDY    43  32  65 W8        30.77S
COTTONWOOD PAS CLOUDY    57  54  88 SE7       30.60R
GUNNISON       FAIR      62  54  74 E7        30.38R
KREMMLING      FAIR      61  57  88 CALM      30.41R
LEADVILLE      MOCLDY    55  47  74 NE3       30.55R
MONARCH PASS   CLOUDY    50  46  87 NE15      30.82S
SALIDA         CLOUDY    67  57  68 NE7       30.48R
SUNLIGHT       FAIR      52  46  82 W6        30.65S
WILKERSON PASS FOG       46  46 100 E8        30.72R THUNDER VSB 1/2
$$

COZ069>075-270600-
...SAN LUIS VALLEY/SANGRE DE CRISTO MOUNTAINS...

CITY           SKY/WX    TMP DP  RH WIND       PRES   REMARKS
ALAMOSA        MOCLDY    62  58  86 E7        30.37R
DEL NORTE      FAIR      63  50  61 W13       30.41R
LA VETA PASS   NOT AVBL
SAGUACHE         N/A    N/A N/A N/A MISG        N/A
$$

COZ035-036-038>040-270600-
...NORTHERN COLORADO FRONT RANGE...

CITY           SKY/WX    TMP DP  RH WIND       PRES   REMARKS
DENVER INTL AP LGT RAIN  65  62  90 S8        30.29F
DMNS CITY PARK   N/A     64  63  97 W5        30.32S
AURORA         NOT AVBL
FRONT RANGE AP LGT RAIN  64  63  94 SE6       30.32S
ERIE MUNI ARPT CLOUDY    65  62  90 S3        30.30S
BOULDER MUN AP CLOUDY    64  64 100 SW3       30.31R
CENTENNIAL     LGT RAIN  63  62  97 S9        30.34S FOG
BROOMFIELD     CLOUDY    64  61  88 CALM      30.34S
FORT COLLINS   FAIR      66  63  90 SW6       30.28R
LONGMONT       CLOUDY    68  64  88 SW3       30.31S
$$

COZ041-046-047-076>085-087-088-270600-
...PIKES PEAK/PALMER DIVIDE AND SOUTHERN FOOTHILLS...

CITY           SKY/WX    TMP DP  RH WIND       PRES   REMARKS
COLO. SPRINGS  TSTM      65  64  97 E10       30.39R FOG
A. F. ACADEMY  RAIN      62  61  99 CALM      30.40R FOG
SCHRIEVER AFB  RAIN      62  60  94 NW3       30.39R
CHEYENNE MTN   HVY RAIN  60  57  89 NW9       30.38R
ELLICOTT       TSTM     N/A N/A N/A SE12      30.36F
FALCON         RAIN      61  60  97 SE6       30.43R
FORT CARSON    DRIZZLE   63  61  94 NW18      30.35R
LIMON          LGT RAIN  67  65  93 SE5       30.30R
MONUMENT HILL  RAIN      57  55  94 W3        30.44R
CANON CITY     CLOUDY    70  64  83 E9        30.31R
WALSENBURG     MOCLDY    66  63  88 CALM      30.35R
TRINIDAD       MOCLDY    67  61  81 CALM      30.31R
$$

COZ042>045-048>051-090-091-270600-
...NORTHEAST COLORADO...

CITY           SKY/WX    TMP DP  RH WIND       PRES   REMARKS
GREELEY ARPT   FAIR      68  65  90 CALM      30.27R
AKRON          FAIR      68  63  84 SE7       30.25R
BURLINGTON     FAIR      69  66  90 NE3       30.22R
WRAY           NOT AVBL
YUMA           FAIR      64  59  82 E3        30.22R
STERLING       FAIR      70  64  83 S3        30.21R
HOLYOKE        FAIR      68  63  83 CALM      30.19R
FORT MORGAN    CLOUDY    70  61  74 E5        30.25R
$$

COZ086-089-092>099-270600-
...SOUTHEAST COLORADO...

CITY           SKY/WX    TMP DP  RH WIND       PRES   REMARKS
PUEBLO         FAIR      68  63  84 N12       30.26R
LA JUNTA       LGT RAIN  72  69  90 N8        30.20R
LAMAR          LGT RAIN  74  67  78 NE9       30.13R
SPRINGFIELD      N/A     73  65  75 E13       30.15F
$$




USA.gov is the U.S. government's official web portal to all federal, state and local government web resources and services.